Regional Weather Roundup
Issued by NWS

Home | Current Version | Previous Version | Text Only | Print | Product List | Glossary Off
Versions: 1 2 3 4 5 6 7 8 9 10 11 12 13 14 15 16 17 18 19 20 21 22 23 24 25 26 27 28 29 30 31 32 33 34 35 36 37 38 39 40 41 42 43 44 45 46 47 48 49 50

000
ASUS45 KBOU 131407
RWRCO

WEATHER ROUNDUP FOR COLORADO
NATIONAL WEATHER SERVICE DENVER/BOULDER CO
700 AM MST SAT FEB 13 2016

NOTE: "FAIR" INDICATES FEW OR NO CLOUDS BELOW 12000 FEET WITH NO
SIGNIFICANT WEATHER AND/OR OBSTRUCTIONS TO VISIBILITY.

COZ001>005-013-030-031-131500-
...NORTHWEST COLORADO...

CITY           SKY/WX    TMP DP  RH WIND       PRES   REMARKS
CRAIG          FAIR       6   3  87 CALM      30.25S
HAYDEN         FAIR      21  12  68 E10       30.23S WCI  10
MEEKER         FAIR      13   8  81 CALM      30.24S
MOUNT WERNER   NOT AVBL
STEAMBOAT SPGS FAIR      14  11  90 CALM      30.24F
WALDEN         FAIR      30  14  51 E5        30.22S WCI  25
$$

COZ006>008-011-131500-
...WEST CENTRAL VALLEYS...

CITY           SKY/WX    TMP DP  RH WIND       PRES   REMARKS
GRAND JUNCTION FAIR      24  23  96 CALM      30.28R
MONTROSE       FAIR      24  19  81 S7        30.31R WCI  16
EAGLE          PTCLDY    18  14  86 CALM      30.33R
RIFLE          FAIR      19  13  77 CALM      30.30R
DELTA          FAIR      28  25  91 CALM      30.30S
NUCLA          FAIR      30  21  69 CALM      30.34R
$$

COZ017>023-064>068-131500-
...SOUTHWEST COLORADO...

CITY           SKY/WX    TMP DP  RH WIND       PRES   REMARKS
DURANGO        FAIR      17  14  88 NE5       30.32F WCI  10
CORTEZ         FAIR      21  17  84 E6        30.31S WCI  13
PAGOSA SPRINGS FAIR      21  19  94 CALM      30.36S
TELLURIDE      FAIR      33  11  40 SE5       30.38S WCI  29
WOLF CREEK PAS FAIR      28  14  54 SW28G33   30.45F WCI  13
$$

COZ009-010-012-014-032>034-037-058>063-131500-
...CENTRAL COLORADO...

CITY           SKY/WX    TMP DP  RH WIND       PRES   REMARKS
ASPEN          FAIR      23  15  71 SE6       30.27S WCI  16
BUENA VISTA    FAIR      26  19  75 CALM      30.25S
COPPER MTN     FAIR      34   3  27 W26G37    30.34F WCI  21
BERTHOUD PASS  FAIR      23  12  63 NW36G44   30.28F WCI   4
COTTONWOOD PAS FAIR      41   1  19 W9        30.29R
GUNNISON       FAIR      -6  -9  84 NE5       30.44S WCI -17
KREMMLING      FLURRIES  -2  -8  78 CALM      30.32R
LEADVILLE      FAIR      29  10  45 NE8       30.29S WCI  21
MONARCH PASS   FAIR      27  10  50 MISG      30.46F
SALIDA         NOT AVBL
SUNLIGHT       FAIR      32  12  43 CALM      30.38R
WILKERSON PASS FAIR      30  12  47 SW15G28   30.30S WCI  19
$$

COZ069>075-131500-
...SAN LUIS VALLEY/SANGRE DE CRISTO MOUNTAINS...

CITY           SKY/WX    TMP DP  RH WIND       PRES   REMARKS
ALAMOSA        FAIR      17  14  88 SW5       30.31S WCI  10
LA VETA PASS   FAIR      32  18  55 MISG      30.32S
SAGUACHE       NOT AVBL
$$

COZ035-036-038>040-131500-
...NORTHERN COLORADO FRONT RANGE...

CITY           SKY/WX    TMP DP  RH WIND       PRES   REMARKS
DENVER INTL AP FOG       29  26  89 CALM      30.08S VSB 1/16
DMNS CITY PARK   N/A     29  29  99 N1        30.08S
AURORA         MOCLDY    25  25  99 N5        30.08S WCI  19
FRONT RANGE AP   N/A     27  25  93 MISG      30.08  VSB 1/2
ERIE MUNI ARPT FOG       29  29 100 CALM      30.09S VSB 1/4
BOULDER MUN AP SNOW      30  30 100 CALM      30.07F VSB 1/4
CENTENNIAL     MOCLDY    43  23  45 S3        30.07S
BROOMFIELD     NOT AVBL
FORT COLLINS   CLOUDY    28  28 100 CALM      30.10S VSB 1/4
LONGMONT       FOG       32  31  96 CALM      30.11S VSB 1/4
$$

COZ041-046-047-076>085-087-088-131500-
...PIKES PEAK/PALMER DIVIDE AND SOUTHERN FOOTHILLS...

CITY           SKY/WX    TMP DP  RH WIND       PRES   REMARKS
COLO. SPRINGS  MOCLDY    28  24  85 CALM      30.13F
A. F. ACADEMY  FAIR      31  24  74 VRB5      30.11F WCI  26
SCHRIEVER AFB  FAIR      34  26  71 NW6       30.12F WCI  29
ELLICOTT       FAIR     N/A N/A N/A N3        30.11F
FALCON         FAIR      43  20  40 NW8       30.14S
FORT CARSON    FAIR      25  23  93 NE1       30.11F FOG
LIMON          CLOUDY    25  25 100 S8        30.11S FOG     WCI  16
MONUMENT HILL  FAIR      45  19  36 SW15      30.14S
TRINIDAD       FAIR      41  21  44 NW5       30.16S
$$

COZ042>045-048>051-090-091-131500-
...NORTHEAST COLORADO...

CITY           SKY/WX    TMP DP  RH WIND       PRES   REMARKS
GREELEY ARPT   CLOUDY    30  28  93 CALM      30.10F
AKRON          CLOUDY    28  28 100 S12       30.10S WCI  18
BURLINGTON     FOG       26  23  88 S21       30.18F VSB 1/2 WCI  12
WRAY           CLOUDY   N/A N/A N/A S16       30.19F
STERLING       FAIR      30  30 100 S8        30.11S WCI  23
HOLYOKE        CLOUDY    32  30  93 S14       30.18S FOG     WCI  22
FORT MORGAN    FOG       29  28  97 W3        30.10S VSB 1/4
$$

COZ086-089-092>099-131500-
...SOUTHEAST COLORADO...

CITY           SKY/WX    TMP DP  RH WIND       PRES   REMARKS
PUEBLO         FOG       29  26  89 CALM      30.15S VSB 1/4
LA JUNTA       CLOUDY    29  27  92 NW5       30.17S FOG     WCI  24
LAMAR          CLOUDY    29  27  92 S6        30.19S WCI  23
SPRINGFIELD      N/A     27  24  89 SW5       30.14F WCI  22
$$



USA.gov is the U.S. government's official web portal to all federal, state and local government web resources and services.